[[{"header":{"parameterUnit":"m.s-1","parameterCategory":1,"la1":30.2992,"la2":30.254,"lo1":-89.0895,"lo2":-89.0443,"dy":0.0025,"dx":0.0025,"nx":19,"ny":19,"refTime":"2026-03-08T09:00:00:Z","depth":0,"parameterNumber":2,"parameterNumberName":"U-component_of_WINDS"},"data":[0,0,0,-1.1894,-1.1894,-1.1891,-1.1891,-1.1896,-1.1896,0,0,0,0,0,0,0,0,0,0,0,-1.19,-1.19,-1.1894,-1.1894,-1.1891,-1.1891,-1.1896,-1.1896,0,0,0,0,0,0,0,0,0,0,0,-1.19,-1.19,-1.19,-1.1894,-1.1891,-1.1891,-1.1896,-1.1895,0,0,0,0,0,0,0,0,0,0,-1.1896,-1.1907,-1.19,-1.19,-1.1894,-1.1891,-1.1891,-1.1895,-1.1895,-1.1901,0,-1.1907,0,-1.1902,-1.1897,-1.1897,0,0,0,-1.189,-1.1906,-1.1901,-1.19,-1.1894,-1.1892,-1.1891,-1.1895,-1.1895,-1.1901,-1.1907,-1.1907,-1.1902,-1.1897,-1.1897,-1.1943,-1.1943,0,0,-1.189,-1.1902,-1.1901,-1.1902,-1.1903,-1.1892,-1.1891,-1.1895,-1.1903,-1.1907,-1.1907,-1.1902,-1.1897,-1.1897,-1.1942,-1.1943,0,0,0,-1.1893,-1.1902,-1.1897,-1.1902,-1.1901,-1.1892,-1.1891,-1.1902,-1.19,-1.1907,-1.1902,-1.1897,-1.1898,-1.1942,-1.1943,-1.1973,0,0,0,-1.1893,-1.1904,-1.1897,-1.1904,-1.1901,-1.1902,-1.1899,-1.1899,-1.1899,-1.1902,-1.1897,-1.1898,-1.1941,-1.1942,-1.1972,-1.1986,0,0,0,-1.1898,-1.1904,-1.1906,-1.1905,-1.1904,-1.1901,-1.1898,-1.1899,-1.1896,-1.1897,-1.1898,-1.1941,-1.1942,-1.197,-1.1983,-1.2001,0,0,0,-1.1907,-1.1933,-1.1907,-1.1934,-1.1904,-1.192,-1.1898,-1.191,-1.1914,-1.1898,-1.1942,-1.1942,-1.1969,-1.1982,-1.2,-1.2019,-1.2028,0,0,-1.1947,-1.1939,-1.1954,-1.193,-1.1954,-1.192,-1.1948,-1.1941,-1.193,-1.1939,-1.194,-1.1972,-1.1983,-1.2001,-1.2074,-1.2081,0,0,0,-1.1971,-1.1982,-1.1986,-1.199,-1.1985,-1.1982,-1.197,-1.1967,-1.1974,-1.1937,-1.1983,-1.1989,-1.1999,-1.2008,-1.2014,-1.2022,-1.1947,-1.1947,-1.1947,-1.2045,-1.2029,-1.2053,-1.2038,-1.2043,-1.2029,-1.2031,-1.2025,-1.2009,-1.202,-1.2022,-1.2068,-1.2079,-1.2083,-1.2092,-1.2031,-1.2031,-1.2031,-1.2031,-1.2102,-1.2116,-1.2092,-1.2107,-1.2091,-1.2103,-1.2091,-1.2079,-1.2088,-1.2065,-1.2073,-1.205,-1.2092,-1.2098,-1.2033,-1.2033,-1.2033,-1.2033,-1.2032,-1.2149,-1.2153,-1.2149,-1.2154,-1.2159,-1.2142,-1.2152,-1.2136,-1.2122,-1.213,-1.2131,-1.213,-1.2128,-1.2131,-1.2131,-1.2131,-1.2132,-1.2132,-1.2132,-1.22,-1.2194,-1.2204,-1.2201,-1.2201,-1.22,-1.2186,-1.2187,-1.2183,-1.2171,-1.2171,-1.2153,-1.2099,-1.2085,-1.2134,-1.2134,-1.2133,-1.2133,-1.2133,-1.2264,-1.2247,-1.2263,-1.2263,-1.2258,-1.2264,-1.2244,-1.2245,-1.2243,-1.2248,-1.2229,-1.2191,-1.2181,-1.2176,-1.2165,-1.2232,-1.2232,-1.2232,-1.2232,-1.2304,-1.2298,-1.231,-1.2312,-1.2312,-1.2295,-1.2313,-1.2302,-1.2288,-1.2286,-1.2274,-1.2258,-1.2253,-1.2246,-1.224,-1.2229,-1.2311,-1.2311,-1.2311,-1.2343,-1.2336,-1.2354,-1.234,-1.2334,-1.233,-1.2346,-1.2349,-1.233,-1.2314,-1.2284,-1.228,-1.2254,-1.2247,-1.2231,-1.2221,-1.2201,0,0]},{"header":{"parameterUnit":"m.s-1","parameterCategory":1,"la1":30.2992,"la2":30.254,"lo1":-89.0895,"lo2":-89.0443,"dy":0.0025,"dx":0.0025,"nx":19,"ny":19,"refTime":"2026-03-08T09:00:00:Z","depth":0,"parameterNumber":3,"parameterNumberName":"V-component_of_WINDS"},"data":[0,0,0,2.3074,2.3077,2.32,2.32,2.3346,2.3348,0,0,0,0,0,0,0,0,0,0,0,2.3028,2.3028,2.3074,2.3077,2.32,2.32,2.3346,2.3348,0,0,0,0,0,0,0,0,0,0,0,2.3027,2.3028,2.3029,2.3077,2.32,2.32,2.3346,2.3258,0,0,0,0,0,0,0,0,0,0,2.3141,2.3086,2.3028,2.3029,2.3078,2.3199,2.32,2.3254,2.3264,2.3285,0,2.3298,0,2.3325,2.3356,2.3357,0,0,0,2.3086,2.3078,2.3121,2.3029,2.3079,2.3199,2.3147,2.326,2.327,2.3297,2.33,2.3306,2.3327,2.3357,2.3358,2.3445,2.3445,0,0,2.3079,2.3045,2.3113,2.3127,2.3103,2.3143,2.315,2.3266,2.3268,2.3301,2.331,2.333,2.3358,2.3359,2.3445,2.3445,0,0,0,2.3053,2.304,2.3079,2.3121,2.3143,2.3146,2.3155,2.3263,2.3279,2.3311,2.3331,2.3359,2.336,2.3445,2.3445,2.3411,0,0,0,2.305,2.3025,2.3076,2.3056,2.3141,2.3204,2.3149,2.3271,2.3285,2.333,2.3359,2.3362,2.3445,2.3445,2.3412,2.3401,0,0,0,2.3023,2.3022,2.3036,2.3054,2.3106,2.3203,2.3226,2.3275,2.3297,2.3357,2.3362,2.3445,2.3445,2.3413,2.3403,2.3415,0,0,0,2.2986,2.3004,2.3034,2.3064,2.3104,2.318,2.3225,2.3284,2.3331,2.3359,2.3445,2.3445,2.3413,2.3404,2.3416,2.3419,2.3417,0,0,2.2991,2.3004,2.3024,2.3055,2.3115,2.3164,2.3222,2.3299,2.3338,2.3408,2.3411,2.3412,2.3403,2.3415,2.3416,2.3414,0,0,0,2.3014,2.3028,2.3052,2.3094,2.3152,2.3202,2.3274,2.3303,2.3364,2.3365,2.3421,2.3416,2.3425,2.3428,2.3427,2.3437,2.3445,2.3445,2.3445,2.2972,2.3019,2.3056,2.3118,2.3159,2.3233,2.3272,2.3325,2.3361,2.3374,2.3395,2.3389,2.3392,2.3391,2.3401,2.34,2.34,2.34,2.34,2.2984,2.3012,2.306,2.3113,2.3164,2.321,2.3284,2.3308,2.3361,2.3377,2.3387,2.34,2.3387,2.3399,2.3398,2.3398,2.3398,2.3399,2.3399,2.2962,2.2984,2.3018,2.3085,2.3133,2.3197,2.3246,2.3291,2.3334,2.3344,2.3373,2.3373,2.3381,2.3354,2.3354,2.3354,2.3354,2.3354,2.3354,2.2926,2.2966,2.2999,2.3063,2.3098,2.3149,2.3226,2.3262,2.3315,2.3344,2.3345,2.3381,2.3376,2.3374,2.3354,2.3354,2.3354,2.3354,2.3354,2.2922,2.293,2.2982,2.3016,2.3097,2.3143,2.32,2.3271,2.3308,2.3331,2.3366,2.3355,2.3372,2.3374,2.3373,2.3354,2.3354,2.3354,2.3354,2.2904,2.2917,2.298,2.3033,2.309,2.3147,2.3208,2.327,2.3335,2.3362,2.3371,2.3374,2.3373,2.3392,2.3393,2.3393,2.3379,2.3379,2.3379,2.2904,2.2925,2.2966,2.3027,2.3094,2.3152,2.3212,2.3274,2.335,2.3382,2.3384,2.3383,2.3388,2.3386,2.3417,2.3418,2.3419,0,0]}]]